Weather in Uraly

Russia / Omsk Oblast     57°04′15″N   72°57′40″E
temp.,
°C
wind,
m/s
gust,
m/s
humid.,
%
clouds,
%
prec.,
mm/h
press.,
hPa
HPBL,
m
25 may, wed
wed2500:00+16sse34655 0.0 101666
03:00+14s37667 0.0 101798
06:00+14s266738 0.0 1017113
09:00+22sse355037 0.0 1017296
12:00+26sse34376 0.0 1017920
15:00+28sse3432100 0.0 10172383
18:00+26se344099 0.0 10161387
21:00+21ese225829 0.0 101622
26 may, thu
thu2600:00+19ese2256100 0.0 101625
03:00+17se2266100 0.0 101634
06:00+17ese2672100 0.0 1016109
09:00+22se365694 0.0 1015358
12:00+27sse584189 0.0 10151913
15:00+28sse583570 0.0 10142858
18:00+27se47425 0.0 10122253
21:00+22ese5135741 0.0 1011497
27 may, fri
fri2700:00+19ese4136984 0.0 1011380
03:00+18ese5156532 0.0 1009501
06:00+17se41569100 0.0 1009550
09:00+20ese61457100 0.0 1007659
12:00+23se7114793 0.2 10061443
15:00+21sse61061100 0.2 10051012
18:00+18sw610700 0.3 1007815
21:00+13sw5983100 0.0 1009625
28 may, sat
sat2800:00+11wsw4884100 0.0 1010636
03:00+11w3784100 0.1 1010727
06:00+10w4878100 0.1 1011630
09:00+10w3877100 0.0 1012711
12:00+10w3969100 0.1 1013670
15:00+12nw31066100 0.0 1014732
18:00+13nne126536 0.0 1014389
21:00+11ene117891 0.0 101533
29 may, sun
sun2900:00+11sw2475100 0.0 1015124
03:00+11nw388598 0.0 1016550
06:00+10nw3790100 0.0 1017444
09:00+13nnw357699 0.0 1017719
12:00+18nnw345681 0.0 10171358
15:00+21n344988 0.0 10171843
18:00+21nnw445260 0.0 10171342
21:00+17nw247343 0.0 101870